SCOUT A DEB, 2386

Orbit data source: Space-Track

SCOUT A DEB, 2386 is space debris in LEO originally from a launch on Sat, 26 Mar 1966 UTC launched from the Air Force Western Test Range (AFWTR). Debris objects in space refer to the collection of defunct objects orbiting the Earth. Examples of debris include non-operational satellites, rocket bodies, and fragments generated from explosions, collisions, or faulty payload assembly.

Loading next visibility...
Identifier
2386, 1966-024D
Orbit
LEO
Last TLE update
2 days ago
Origin
Manufacturer
Unknown
Mission
Spacecraft
Bus & Motor
Unknown
Mass
Unknown
Launch date (UTC)
1966-03-26 (59 years ago)
Launch vehicle
Unknown
Launch site
Air Force Western Test Range (AFWTR)
Object type
Payload
Rocket body
Debris
Shape & HBR
Unknown
Radar Cross Section
Small (<0.1 m²)

Expand to show TLE details & history

TLE from 2 days ago
0 SCOUT A DEB
1 02386U 66024D   25187.38390273  .00000222  00000-0  18920-3 0  9994
2 02386  90.0521 329.6360 0126587 312.2385  46.8098 13.81380557274201
Epoch: 2025-07-06T09:12Z
TLE epoch observation values (Epoch: 2025-07-06T09:12:49.195Z)
Latitude
-0.00002°
Longitude
-93.17735°
Altitude
899.046 km
Speed
7.434 km/s
True Right ascension
21h 58m 32s
True Declination
0° 00' 00"
Sunlit
Object was in full shadow at epoch
Visualization orbit readout
Latitude
-12.32783°
Longitude
86.82198°
Altitude
1,001.561 km
Speed
7.332 km/s
Apparent Right ascension
08h 57m 38s
Apparent Declination
-26° 09' 49"
Sunlit
Object is in daylight
Visualization observer readout
Local Sidereal Time
19:26:41
Azimuth
299.083° NW
Elevation
-66.61°
Doppler factor
1
Orbital elements
Apogee altitude
1,048.838 km
Perigee altitude
863.157 km
Semi-major axis
7,334.135 km
Eccentricity
0.01266
Inclination
90.0521°
RAAN
329.636°
Arg. of periapsis
312.2385°
True anomaly
Unknown
Mean anomaly
46.8098°
Eccentric anomaly
Unknown
Mean motion
3.45557 °/min
Orbital period
104.18 mins
BSTAR
0.0001892
Loading maneuver chart data...
Loading SW <> Apogee altitude chart data...
Loading historical data...
Loading historical data...
Loading historical data...
Loading historical data...
Loading historical data...
Loading historical data...
Loading historical data...

SCOUT A DEB Visibility forecast

Observer location: undefined°, undefined°

Span
Click to sort rows by Start time (UTC) header in descending order
Start Az.
Max El. time (UTC)
Max El. Az.
Max El.
End time (UTC)
End Az.
7 mins2025-07-08 08:18:08.833Z106.021° ESE2025-07-08 08:21:08.833Z75.679° E15.518°2025-07-08 08:25:08.833Z35.085° NE
10 mins2025-07-08 10:00:08.833Z186.213° SSW2025-07-08 10:05:08.833Z293.818° NW43.336°2025-07-08 10:10:08.833Z352.497° N
9 mins2025-07-08 20:56:08.833Z29.37° NE2025-07-08 21:00:08.833Z83.849° E30.996°2025-07-08 21:05:08.833Z146.276° SSE
9 mins2025-07-08 22:40:08.833Z335.07° NNW2025-07-08 22:44:08.833Z282.13° WNW29.988°2025-07-08 22:49:08.833Z222.859° SW
|